DW6794 Weather Reports


Display with metric or nautical units.
time (UTC)temp
F
wind
direction
speed
MPH
gust
MPH
rain 1hr
in
rain 24hr
in
rain mn
in
humidity
%
barometer
mb
20170822125449 73 91 0.0 0.0 0.00 0.00 0.00 86 1015.5
20170822124449 72 91 0.0 0.0 0.00 0.00 0.00 87 1015.4
20170822123449 71 91 0.0 0.0 0.00 0.00 0.00 87 1015.3
20170822122449 70 91 0.0 0.0 0.00 0.00 0.00 87 1015.2
20170822121348 68 91 0.0 0.0 0.00 0.00 0.00 87 1015.4
20170822115349 66 91 0.0 0.0 0.00 0.00 0.00 86 1015.5
20170822114348 66 91 0.0 0.0 0.00 0.00 0.00 86 1015.5
20170822113348 65 91 0.0 0.0 0.00 0.00 0.00 86 1015.6
20170822112348 65 91 0.0 0.0 0.00 0.00 0.00 86 1015.5
20170822105349 65 91 0.0 0.0 0.00 0.00 0.00 85 1015.2
20170822104349 65 91 0.0 0.0 0.00 0.00 0.00 85 1015.2
20170822103348 65 91 0.0 0.0 0.00 0.00 0.00 85 1015.2
20170822102348 65 91 0.0 0.0 0.00 0.00 0.00 85 1015.2
20170822101349 65 91 0.0 0.0 0.00 0.00 0.00 84 1015.1
20170822095348 65 91 0.0 0.0 0.00 0.00 0.00 84 1014.9
20170822092350 66 91 0.0 0.0 0.00 0.00 0.00 84 1014.8
20170822091348 66 91 0.0 0.0 0.00 0.00 0.00 84 1014.7
20170822090349 66 91 0.0 0.0 0.00 0.00 0.00 84 1014.7
20170822085349 66 91 0.0 0.0 0.00 0.00 0.00 84 1014.7
20170822084349 66 91 0.0 0.0 0.00 0.00 0.00 83 1014.9
20170822082349 66 91 0.0 0.0 0.00 0.00 0.00 83 1014.8
20170822075349 67 91 0.0 0.0 0.00 0.00 0.00 83 1015.0
20170822072349 67 91 0.0 0.0 0.00 0.00 0.00 82 1015.1
20170822070350 68 91 0.0 0.0 0.00 0.00 0.00 82 1015.0
20170822064349 68 91 0.0 0.0 0.00 0.00 0.00 82 1015.3
20170822062349 68 91 0.0 0.0 0.00 0.00 0.00 82 1015.7
20170822061350 68 91 0.0 0.0 0.00 0.00 0.00 82 1015.8
20170822055349 68 91 0.0 0.0 0.00 0.00 0.00 81 1016.2
20170822054349 69 91 0.0 0.0 0.00 0.00 0.00 81 1016.3
20170822053350 69 91 0.0 0.0 0.00 0.00 0.00 81 1016.3
20170822045350 70 91 0.0 0.0 0.00 0.00 0.00 80 1016.7
20170822044350 70 91 0.0 0.0 0.00 0.00 0.00 80 1016.8
20170822042350 70 91 0.0 0.0 0.00 0.00 0.00 80 1016.9
20170822041349 71 91 0.0 0.0 0.00 0.00 0.00 80 1016.9
20170822040350 71 91 0.0 0.0 0.00 0.00 0.00 79 1017.1
20170822034350 71 91 0.0 0.0 0.00 0.00 0.00 78 1017.2
20170822032349 71 91 0.0 0.0 0.00 0.00 0.00 78 1017.0
20170822030350 71 91 0.0 0.0 0.00 0.00 0.00 77 1017.1
20170822025350 72 91 0.0 0.0 0.00 0.00 0.00 76 1017.1
20170822024351 72 91 0.0 0.0 0.00 0.00 0.00 76 1017.1
20170822023349 72 91 0.0 0.0 0.00 0.00 0.00 75 1017.1
20170822022350 73 91 0.0 0.0 0.00 0.00 0.00 75 1016.9
20170822021349 73 91 0.0 0.0 0.00 0.00 0.00 73 1016.9
20170822020350 73 91 0.0 0.0 0.00 0.00 0.00 74 1016.7
20170822015350 74 91 0.0 0.0 0.00 0.00 0.00 73 1016.7
20170822014350 74 91 0.0 0.0 0.00 0.00 0.00 70 1016.7
20170822013350 75 91 0.0 0.0 0.00 0.00 0.00 70 1016.6
20170822012350 75 91 0.0 0.0 0.00 0.00 0.00 69 1016.6
20170822011350 76 91 0.0 0.0 0.00 0.00 0.00 68 1016.5
20170822010351 77 91 0.0 0.0 0.00 0.00 0.00 67 1016.4
20170822005350 78 91 0.0 0.0 0.00 0.00 0.00 67 1016.3
20170822002350 82 91 0.0 0.0 0.00 0.00 0.00 62 1016.1
20170822001350 83 91 0.0 0.0 0.00 0.00 0.00 61 1016.1
20170822000351 84 91 0.0 0.0 0.00 0.00 0.00 60 1016.0
20170821235350 85 91 0.0 0.0 0.00 0.00 0.00 59 1016.0
20170821234350 86 91 0.0 0.0 0.00 0.00 0.00 58 1016.0
20170821233351 87 91 0.0 0.0 0.00 0.00 0.00 57 1016.0
20170821232350 88 91 0.0 0.0 0.00 0.00 0.00 56 1015.9
20170821231351 88 91 0.0 0.0 0.00 0.00 0.00 56 1015.9
20170821225350 88 91 0.0 5.0 0.00 0.00 0.00 55 1015.8
20170821224351 88 91 0.0 0.0 0.00 0.00 0.00 55 1015.8
20170821223351 88 91 0.0 2.0 0.00 0.00 0.00 54 1015.8
20170821222351 87 91 1.0 3.0 0.00 0.00 0.00 52 1015.7
20170821221350 88 91 1.0 3.0 0.00 0.00 0.00 52 1015.9
20170821215351 88 91 2.0 5.0 0.00 0.00 0.00 52 1015.9
20170821213350 89 91 0.0 5.0 0.00 0.00 0.00 53 1016.0
20170821212351 89 91 1.0 3.0 0.00 0.00 0.00 53 1016.0
20170821211351 89 91 1.0 5.0 0.00 0.00 0.00 53 1016.0
20170821205351 89 92 3.0 6.0 0.00 0.00 0.00 55 1016.3
20170821203351 88 152 1.0 3.0 0.00 0.00 0.00 57 1016.6
20170821202351 87 152 1.0 5.0 0.00 0.00 0.00 59 1016.5
20170821195351 85 201 0.0 0.0 0.00 0.00 0.00 62 1016.6
20170821194351 84 222 0.0 0.0 0.00 0.00 0.00 65 1016.7
20170821193351 83 225 0.0 0.0 0.00 0.00 0.00 66 1016.7
20170821192351 83 225 0.0 0.0 0.00 0.00 0.00 66 1016.8
20170821191351 82 226 0.0 0.0 0.00 0.00 0.00 65 1016.9
20170821190351 82 226 0.0 0.0 0.00 0.00 0.00 64 1017.0
20170821183351 86 226 0.0 0.0 0.00 0.00 0.00 63 1017.2
20170821182351 87 226 0.0 0.0 0.00 0.00 0.00 62 1017.5
20170821181351 87 226 0.0 0.0 0.00 0.00 0.00 60 1017.5
20170821180351 87 226 0.0 0.0 0.00 0.00 0.00 60 1017.5
20170821175352 87 225 0.0 0.0 0.00 0.00 0.00 62 1017.5
20170821173351 87 143 0.0 5.0 0.00 0.00 0.00 61 1017.7
20170821172352 87 235 0.0 3.0 0.00 0.00 0.00 63 1017.8
20170821171351 86 235 0.0 5.0 0.00 0.00 0.00 65 1018.0
20170821170352 86 226 2.0 5.0 0.00 0.00 0.00 66 1018.1
20170821165352 86 183 0.0 7.0 0.00 0.00 0.00 67 1018.1
20170821162352 85 63 2.0 3.0 0.00 0.00 0.00 71 1018.3
20170821160352 84 64 0.0 3.0 0.00 0.00 0.00 73 1018.7
20170821155352 85 64 1.0 5.0 0.00 0.00 0.00 74 1018.8
20170821154352 84 64 2.0 3.0 0.00 0.00 0.00 74 1018.9
20170821153351 84 64 0.0 0.0 0.00 0.00 0.00 75 1018.9
20170821152352 83 64 0.0 0.0 0.00 0.00 0.00 77 1018.8
20170821150351 82 64 0.0 3.0 0.00 0.00 0.00 77 1019.0
20170821145352 82 64 2.0 3.0 0.00 0.00 0.00 78 1019.1
20170821142352 80 64 0.0 0.0 0.00 0.00 0.00 80 1019.2
20170821141352 79 64 0.0 0.0 0.00 0.00 0.00 81 1019.1
20170821140352 78 64 0.0 0.0 0.00 0.00 0.00 81 1019.2
20170821133352 77 64 0.0 0.0 0.00 0.00 0.00 84 1019.3